Time,TemperatureF,DewpointF,PressureIn,WindDirection,WindDirectionDegrees,WindSpeedMPH,WindSpeedGustMPH,Humidity,HourlyPrecipIn,Conditions,Clouds,dailyrainin,SolarRadiationWatts/m^2,SoftwareType,DateUTC
2013-05-15 00:03:00,57.0,45.0,-100.00,SW,233,1.0,4.0,63,0.00,,,0.00,0.000000,,2013-05-15 04:03:00,
2013-05-15 00:33:00,57.0,47.0,-100.00,SW,217,3.0,6.0,68,0.00,,,0.00,0.000000,,2013-05-15 04:33:00,
2013-05-15 00:43:00,57.0,47.0,-100.00,SW,217,3.0,6.0,68,0.00,,,0.00,0.000000,,2013-05-15 04:43:00,
2013-05-15 00:52:00,57.0,47.0,-100.00,SW,217,3.0,6.0,68,0.00,,,0.00,0.000000,,2013-05-15 04:52:00,
2013-05-15 01:02:00,57.0,47.0,-100.00,SW,217,3.0,6.0,68,0.00,,,0.00,0.000000,,2013-05-15 05:02:00,
2013-05-15 01:32:00,55.0,47.0,-100.00,WSW,244,2.0,4.0,74,0.00,,,0.00,0.000000,,2013-05-15 05:32:00,
2013-05-15 01:42:00,55.0,47.0,-100.00,WSW,244,2.0,4.0,74,0.00,,,0.00,0.000000,,2013-05-15 05:42:00,
2013-05-15 01:52:00,55.0,47.0,-100.00,WSW,244,2.0,4.0,74,0.00,,,0.00,0.000000,,2013-05-15 05:52:00,
2013-05-15 02:02:00,55.0,47.0,-100.00,WSW,244,2.0,4.0,74,0.00,,,0.00,0.000000,,2013-05-15 06:02:00,
2013-05-15 02:22:00,52.0,46.0,-100.00,West,264,0.0,3.0,81,0.00,,,0.00,0.000000,,2013-05-15 06:22:00,
2013-05-15 02:32:00,52.0,46.0,-100.00,West,264,0.0,3.0,81,0.00,,,0.00,0.000000,,2013-05-15 06:32:00,
2013-05-15 02:42:00,52.0,46.0,-100.00,West,264,0.0,3.0,81,0.00,,,0.00,0.000000,,2013-05-15 06:42:00,
2013-05-15 02:52:00,52.0,46.0,-100.00,West,264,0.0,3.0,81,0.00,,,0.00,0.000000,,2013-05-15 06:52:00,
2013-05-15 03:01:00,52.0,46.0,-100.00,West,264,0.0,3.0,81,0.00,,,0.00,0.000000,,2013-05-15 07:01:00,
2013-05-15 03:22:00,50.0,47.0,-100.00,East,86,0.0,2.0,90,0.00,,,0.00,0.000000,,2013-05-15 07:22:00,
2013-05-15 03:32:00,50.0,47.0,-100.00,East,86,0.0,2.0,90,0.00,,,0.00,0.000000,,2013-05-15 07:32:00,
2013-05-15 03:42:00,50.0,47.0,-100.00,East,86,0.0,2.0,90,0.00,,,0.00,0.000000,,2013-05-15 07:42:00,
2013-05-15 03:52:00,50.0,47.0,-100.00,East,86,0.0,2.0,90,0.00,,,0.00,0.000000,,2013-05-15 07:52:00,
2013-05-15 04:02:00,50.0,47.0,-100.00,East,86,0.0,2.0,90,0.00,,,0.00,0.000000,,2013-05-15 08:02:00,
2013-05-15 04:21:00,50.0,47.0,-100.00,NW,324,1.0,4.0,91,0.00,,,0.00,0.000000,,2013-05-15 08:21:00,
2013-05-15 04:32:00,50.0,47.0,-100.00,NW,324,1.0,4.0,91,0.00,,,0.00,0.000000,,2013-05-15 08:32:00,
2013-05-15 04:42:00,50.0,47.0,-100.00,NW,324,1.0,4.0,91,0.00,,,0.00,0.000000,,2013-05-15 08:42:00,
2013-05-15 04:53:00,50.0,47.0,-100.00,NW,324,1.0,4.0,91,0.00,,,0.00,0.000000,,2013-05-15 08:53:00,
2013-05-15 05:01:00,50.0,47.0,-100.00,NW,324,1.0,4.0,91,0.00,,,0.00,0.000000,,2013-05-15 09:01:00,
2013-05-15 05:22:00,49.0,47.0,-100.00,ENE,72,1.0,3.0,93,0.00,,,0.00,0.000000,,2013-05-15 09:22:00,
2013-05-15 05:33:00,49.0,47.0,-100.00,ENE,72,1.0,3.0,93,0.00,,,0.00,0.000000,,2013-05-15 09:33:00,
2013-05-15 05:42:00,49.0,47.0,-100.00,ENE,72,1.0,3.0,93,0.00,,,0.00,0.000000,,2013-05-15 09:42:00,
2013-05-15 05:53:00,49.0,47.0,-100.00,ENE,72,1.0,3.0,93,0.00,,,0.00,0.000000,,2013-05-15 09:53:00,
2013-05-15 06:02:00,49.0,47.0,-100.00,ENE,72,1.0,3.0,93,0.00,,,0.00,0.000000,,2013-05-15 10:02:00,
2013-05-15 06:32:00,48.0,47.0,-100.00,NE,55,1.0,3.0,96,0.00,,,0.00,0.000000,,2013-05-15 10:32:00,
2013-05-15 06:43:00,48.0,47.0,-100.00,NE,55,1.0,3.0,96,0.00,,,0.00,0.000000,,2013-05-15 10:43:00,
2013-05-15 06:52:00,48.0,47.0,-100.00,NE,55,1.0,3.0,96,0.00,,,0.00,0.000000,,2013-05-15 10:52:00,
2013-05-15 07:04:00,49.0,48.0,-100.00,WNW,299,1.0,3.0,96,0.00,,,0.00,12.000000,,2013-05-15 11:04:00,
2013-05-15 07:29:00,49.0,48.0,-100.00,WNW,299,1.0,3.0,96,0.00,,,0.00,12.000000,,2013-05-15 11:29:00,
2013-05-15 07:50:00,49.0,48.0,-100.00,WNW,299,1.0,3.0,96,0.00,,,0.00,12.000000,,2013-05-15 11:50:00,
2013-05-15 08:30:00,54.0,51.0,-100.00,South,185,2.0,5.0,89,0.00,,,0.00,45.000000,,2013-05-15 12:30:00,
2013-05-15 08:38:00,54.0,51.0,-100.00,South,185,2.0,5.0,89,0.00,,,0.00,45.000000,,2013-05-15 12:38:00,
2013-05-15 08:49:00,54.0,51.0,-100.00,South,185,2.0,5.0,89,0.00,,,0.00,45.000000,,2013-05-15 12:49:00,
2013-05-15 09:04:00,61.0,54.0,-100.00,South,190,3.0,5.0,77,0.00,,,0.00,94.000000,,2013-05-15 13:04:00,
2013-05-15 09:37:00,61.0,54.0,-100.00,South,190,3.0,5.0,77,0.00,,,0.00,94.000000,,2013-05-15 13:37:00,
2013-05-15 09:48:00,61.0,54.0,-100.00,South,190,3.0,5.0,77,0.00,,,0.00,94.000000,,2013-05-15 13:48:00,
2013-05-15 10:04:00,67.0,56.0,-100.00,SW,221,6.0,8.0,68,0.00,,,0.00,454.000000,,2013-05-15 14:04:00,
2013-05-15 10:28:00,67.0,56.0,-100.00,SW,221,6.0,8.0,68,0.00,,,0.00,454.000000,,2013-05-15 14:28:00,
2013-05-15 10:39:00,67.0,56.0,-100.00,SW,221,6.0,8.0,68,0.00,,,0.00,454.000000,,2013-05-15 14:39:00,
2013-05-15 10:52:00,67.0,56.0,-100.00,SW,221,6.0,8.0,68,0.00,,,0.00,454.000000,,2013-05-15 14:52:00,
2013-05-15 10:59:00,67.0,56.0,-100.00,SW,221,6.0,8.0,68,0.00,,,0.00,454.000000,,2013-05-15 14:59:00,
2013-05-15 11:04:00,74.0,59.0,-100.00,SW,215,6.0,9.0,60,0.00,,,0.00,826.000000,,2013-05-15 15:04:00,
2013-05-15 11:29:00,74.0,59.0,-100.00,SW,215,6.0,9.0,60,0.00,,,0.00,826.000000,,2013-05-15 15:29:00,
2013-05-15 11:40:00,74.0,59.0,-100.00,SW,215,6.0,9.0,60,0.00,,,0.00,826.000000,,2013-05-15 15:40:00,
2013-05-15 11:49:00,74.0,59.0,-100.00,SW,215,6.0,9.0,60,0.00,,,0.00,826.000000,,2013-05-15 15:49:00,
2013-05-15 12:02:00,74.0,59.0,-100.00,SW,215,6.0,9.0,60,0.00,,,0.00,826.000000,,2013-05-15 16:02:00,
2013-05-15 12:39:00,80.0,61.0,-100.00,SW,223,6.0,11.0,52,0.00,,,0.00,973.000000,,2013-05-15 16:39:00,
2013-05-15 12:51:00,80.0,61.0,-100.00,SW,223,6.0,11.0,52,0.00,,,0.00,973.000000,,2013-05-15 16:51:00,
2013-05-15 13:01:00,80.0,61.0,-100.00,SW,223,6.0,11.0,52,0.00,,,0.00,973.000000,,2013-05-15 17:01:00,
2013-05-15 14:04:00,86.0,62.0,-100.00,SSW,206,4.0,11.0,44,-99.99,,,0.00,1070.000000,,2013-05-15 18:04:00,
2013-05-15 14:28:00,86.0,62.0,-100.00,SSW,206,4.0,11.0,44,-99.99,,,0.00,1070.000000,,2013-05-15 18:28:00,
2013-05-15 14:38:00,86.0,62.0,-100.00,SSW,206,4.0,11.0,44,-99.99,,,0.00,1070.000000,,2013-05-15 18:38:00,
2013-05-15 14:58:00,86.0,62.0,-100.00,SSW,206,4.0,11.0,44,-99.99,,,0.00,1070.000000,,2013-05-15 18:58:00,
2013-05-15 15:04:00,87.0,61.0,-100.00,SSW,198,7.0,12.0,42,0.00,,,0.00,988.000000,,2013-05-15 19:04:00,
2013-05-15 15:39:00,87.0,61.0,-100.00,SSW,198,7.0,12.0,42,0.00,,,0.00,988.000000,,2013-05-15 19:39:00,
2013-05-15 16:40:00,87.0,62.0,-100.00,South,182,8.0,16.0,44,0.00,,,0.00,891.000000,,2013-05-15 20:40:00,
2013-05-15 16:47:00,87.0,62.0,-100.00,South,182,8.0,16.0,44,0.00,,,0.00,891.000000,,2013-05-15 20:47:00,
2013-05-15 17:04:00,87.0,63.0,-100.00,SSW,203,7.0,14.0,45,0.00,,,0.00,586.000000,,2013-05-15 21:04:00,
2013-05-15 17:42:00,87.0,63.0,-100.00,SSW,203,7.0,14.0,45,0.00,,,0.00,586.000000,,2013-05-15 21:42:00,
2013-05-15 17:53:00,87.0,63.0,-100.00,SSW,203,7.0,14.0,45,0.00,,,0.00,586.000000,,2013-05-15 21:53:00,
2013-05-15 18:01:00,87.0,63.0,-100.00,SSW,203,7.0,14.0,45,0.00,,,0.00,586.000000,,2013-05-15 22:01:00,
2013-05-15 18:04:00,85.0,60.0,-100.00,SSW,210,9.0,16.0,43,0.00,,,0.00,507.000000,,2013-05-15 22:04:00,
2013-05-15 18:42:00,85.0,60.0,-100.00,SSW,210,9.0,16.0,43,0.00,,,0.00,507.000000,,2013-05-15 22:42:00,
2013-05-15 18:53:00,85.0,60.0,-100.00,SSW,210,9.0,16.0,43,0.00,,,0.00,507.000000,,2013-05-15 22:53:00,
2013-05-15 19:00:00,85.0,60.0,-100.00,SSW,210,9.0,16.0,43,0.00,,,0.00,507.000000,,2013-05-15 23:00:00,
2013-05-15 19:30:00,83.0,59.0,-100.00,SW,220,6.0,15.0,45,0.00,,,0.00,219.000000,,2013-05-15 23:30:00,
2013-05-15 19:40:00,83.0,59.0,-100.00,SW,220,6.0,15.0,45,0.00,,,0.00,219.000000,,2013-05-15 23:40:00,
2013-05-15 19:50:00,83.0,59.0,-100.00,SW,220,6.0,15.0,45,0.00,,,0.00,219.000000,,2013-05-15 23:50:00,
2013-05-15 20:01:00,83.0,59.0,-100.00,SW,220,6.0,15.0,45,0.00,,,0.00,219.000000,,2013-05-16 00:01:00,
2013-05-15 20:37:00,76.0,60.0,-100.00,NE,39,1.0,12.0,57,0.00,,,0.00,48.000000,,2013-05-16 00:37:00,
2013-05-15 20:52:00,76.0,60.0,-100.00,NE,39,1.0,12.0,57,0.00,,,0.00,48.000000,,2013-05-16 00:52:00,
2013-05-15 21:40:00,69.0,68.0,-100.00,NNW,330,2.0,3.0,95,0.01,,,0.01,13.000000,,2013-05-16 01:40:00,
2013-05-15 22:04:00,66.0,65.0,-100.00,NE,55,0.0,2.0,95,0.00,,,0.01,0.000000,,2013-05-16 02:04:00,
2013-05-15 22:29:00,66.0,65.0,-100.00,NE,55,0.0,2.0,95,0.00,,,0.01,0.000000,,2013-05-16 02:29:00,
2013-05-15 22:40:00,66.0,65.0,-100.00,NE,55,0.0,2.0,95,0.00,,,0.01,0.000000,,2013-05-16 02:40:00,
2013-05-15 22:48:00,66.0,65.0,-100.00,NE,55,0.0,2.0,95,0.00,,,0.01,0.000000,,2013-05-16 02:48:00,
2013-05-15 22:56:00,66.0,65.0,-100.00,NE,55,0.0,2.0,95,0.00,,,0.01,0.000000,,2013-05-16 02:56:00,
2013-05-15 23:40:00,67.0,64.0,-100.00,WNW,297,2.0,3.0,91,0.00,,,0.01,0.000000,,2013-05-16 03:40:00,
2013-05-15 23:47:00,67.0,64.0,-100.00,WNW,297,2.0,3.0,91,0.00,,,0.01,0.000000,,2013-05-16 03:47:00,
2013-05-15 23:58:00,67.0,64.0,-100.00,WNW,297,2.0,3.0,91,0.00,,,0.01,0.000000,,2013-05-16 03:58:00,